Regional Weather Roundup
Issued by NWS

Home | Current Version | Previous Version | Text Only | Print | Product List | Glossary Off
Versions: 1 2 3 4 5 6 7 8 9 10 11 12 13 14 15 16 17 18 19 20 21 22 23 24 25 26 27

000
ASUS43 KDMX 221807
RWRIA

WEATHER ROUNDUP FOR IOWA
NATIONAL WEATHER SERVICE DES MOINES IA
100 PM CDT WED OCT 22 2014

NOTE: "FAIR" INDICATES FEW OR NO CLOUDS BELOW 12,000 FEET WITH NO
SIGNIFICANT WEATHER AND/OR OBSTRUCTIONS TO VISIBILITY.

* - THESE STATIONS ARE NOT NWS STATIONS...THUS NOT UNDER NWS
QUALITY CONTROL.  THEY ALSO DO NOT REPORT WEATHER SUCH
AS PRECIPITATION OR FOG.

IAZ001>003-012>014-020>022-031>034-043>046-221900-
   NORTHWEST IOWA

CITY           SKY/WX    TMP DP  RH WIND       PRES   REMARKS
CARROLL *      SUNNY     66  46  48 S13G24    30.11F
CHEROKEE *       N/A     67  48  50 S14G21    30.05F
DENISON *      SUNNY     70  50  49 S10G18    30.07F
LE MARS *      SUNNY     70  50  49 S18       30.01F
ORANGE CITY *  SUNNY     70  48  46 S14G23    30.01F
SHELDON *      SUNNY     68  48  49 S23       30.01F
SIOUX CITY       N/A     71  50  47 S14G22    30.02F
6HR MIN TEMP:  53; 6HR MAX TEMP:  71;

SPENCER          N/A     65  45  48 S23       30.07F
6HR MIN TEMP:  47; 6HR MAX TEMP:  65;

STORM LAKE *   MOSUNNY   68  46  45 S23       30.08F
$$

IAZ055>058-069>071-079>083-090>094-221900-
   SOUTHWEST IOWA

CITY           SKY/WX    TMP DP  RH WIND       PRES   REMARKS
ATLANTIC *     SUNNY     68  48  49 S15G25    30.10F
AUDUBON *      SUNNY     66  45  45 S14G22    30.12F
CLARINDA *     SUNNY     66  50  55 SE12G18   30.13F
COUNCIL BLFS * SUNNY     70  52  52 S16G23    30.07F
CRESTON *      SUNNY     63  46  55 SE15G23   30.15F
HARLAN  *      SUNNY     68  48  49 SE17G24   30.11F
LAMONI         CLOUDY    61  46  57 SE15      30.19F
6HR MIN TEMP:  45; 6HR MAX TEMP:  61;

RED OAK *      SUNNY     68  50  52 S20       30.10F
SHENANDOAH *   SUNNY     70  52  52 S15       30.10F
$$

IAZ047>049-059>061-072>074-084-221900-
   CENTRAL IOWA

CITY           SKY/WX    TMP DP  RH WIND       PRES   REMARKS
AMES           CLOUDY    58  43  57 SE17G24   30.18F
6HR MIN TEMP:  41; 6HR MAX TEMP:  58;

ANKENY *       PTSUNNY   59  45  58 SE16G23   30.18F
CHARITON *     PTSUNNY   61  46  59 SE14      30.20F
DES MOINES     PTSUNNY   59  44  57 SE16      30.19F
6HR MIN TEMP:  44; 6HR MAX TEMP:  59;

GRINNELL*        N/A     57  43  58 S13       30.23F
KNOXVILLE *    MOSUNNY   61  45  55 SE10G17   30.20F
MARSHALLTOWN     N/A     58  43  57 SE16G24   30.21F
6HR MIN TEMP:  39; 6HR MAX TEMP:  58;

PELLA *          N/A     60  45  56 SE13      30.23F
PERRY *          N/A     63  45  51 SE18G24   30.15F
$$

IAZ004>006-015-016-023>025-035-036-221900-
   NORTH CENTRAL IOWA

CITY           SKY/WX    TMP DP  RH WIND       PRES   REMARKS
ALGONA *       SUNNY     61  45  55 S16G31    30.12F
CLARION *      PTSUNNY   61  43  51 S21G29    30.15F
ESTHERVILLE      N/A     62  44  51 S26G36    30.07F
6HR MIN TEMP:  43; 6HR MAX TEMP:  62;

FORT DODGE *     N/A     61  45  55 S12       30.14F
MASON CITY     CLOUDY    55  42  61 SE18G26   30.19F
6HR MIN TEMP:  38; 6HR MAX TEMP:  55;

FOREST CITY *  MOSUNNY   57  45  62 SE18G25   30.16F
IOWA FALLS *     N/A     59  43  55 SE18      30.19F
$$

IAZ007>011-017>019-026>030-037>042-050>054-066-221900-
   NORTHEAST IOWA

CITY           SKY/WX    TMP DP  RH WIND       PRES   REMARKS
CEDAR RAPIDS     N/A     56  43  61 SE12      30.27F
6HR MIN TEMP:  34; 6HR MAX TEMP:  56;

CHARLES CITY * SUNNY     55  41  58 SE14G22   30.22F
CLINTON *        N/A     55  39  54 SE9       30.33F
DECORAH *      SUNNY     55  39  54 SE10G18   30.25F
DUBUQUE          N/A     53  40  61 S9        30.30F
6HR MIN TEMP:  34; 6HR MAX TEMP:  53;

MONTICELLO *   SUNNY     55  39  54 SE13      30.29F
OELWEIN *      SUNNY     55  41  58 S18       30.25F
WATERLOO         N/A     57  41  55 SE17      30.23F
6HR MIN TEMP:  36; 6HR MAX TEMP:  57;

$$

IAZ064-065-067-068-078-221900-
   EAST CENTRAL IOWA

CITY           SKY/WX    TMP DP  RH WIND       PRES   REMARKS
DAVENPORT        N/A     55  38  52 S8        30.30F
6HR MIN TEMP:  34; 6HR MAX TEMP:  55;

IOWA CITY        N/A     56  43  61 SE7       30.29F
6HR MIN TEMP:  35; 6HR MAX TEMP:  57;

MT. PLEASANT *   N/A     57  41  54 SE7       30.28F
MUSCATINE *    SUNNY     57  41  54 SE13      30.30F
QUAD CITIES      N/A     56  40  55 SE9       30.30F
6HR MIN TEMP:  32; 6HR MAX TEMP:  56;

$$

IAZ062-063-075>077-085>089-095>099-221900-
   SOUTHEAST IOWA

CITY           SKY/WX    TMP DP  RH WIND       PRES   REMARKS
BURLINGTON       N/A     57  43  59 SE9       30.29F
6HR MIN TEMP:  39; 6HR MAX TEMP:  57;

FAIRFIELD *    SUNNY     57  41  54 SE12G17   30.27F
FORT MADISON * SUNNY     61  45  55 SE8       30.29F
KEOKUK *       SUNNY     59  43  55 VRB5G13   30.28F
OSKALOOSA *      N/A     59  42  52 S14       30.24F
CENTERVILLE *  SUNNY     61  45  55 SE12      30.24F
WASHINGTON *   SUNNY     59  43  55 S13       30.27F
$$

ABBREVIATIONS USED IN REMARKS
   TC - TEMPERATURES IN CELSIUS
  WCI - WIND CHILL INDEX
   HX - HEAT INDEX
  VSB - VISIBILITY
$$




USA.gov is the U.S. government's official web portal to all federal, state and local government web resources and services.